Location: Huberhof
(49.2050°N, 7.4980°E)
Time: 01:11:46
(UTC+00:00)

Cosmos 1300 - Pass Details

Date: 29 October 2020
Orbit: 511 x 513 km, 82.5° (Epoch: 26 November)

Event Time Altitude Azimuth Distance (km) Brightness Sun altitude
Rises 17:05:00 0° 187° (S) 2,618 6.5 -9.0°
Reaches altitude 10° 17:07:07 10° 186° (S) 1,736 5.6 -9.3°
Maximum altitude 17:10:55 85° 101° (E) 524 2.6 -9.9°
Drops below altitude 10° 17:14:46 10° 11° (N) 1,752 5.2 -10.6°
Sets 17:16:55 0° 11° (N) 2,644 6.1 -10.9°
